GW5319 Weather Reports


time (UTC)temp
F
wind
direction
speed
knots
gust
knots
rain 1hr
in
rain 24hr
in
rain mn
in
humidity
%
barometer
mb
20260507070107 59 245 2.6 3.5 0.00 0.39 0.00 90 1014.5
20260507064610 59 259 0.9 3.5 0.00 0.39 0.00 91 1014.3
20260507063059 59 192 2.6 5.2 0.00 0.38 0.00 91 1014.2
20260507061602 59 239 1.7 3.5 0.00 0.38 0.00 93 1014.1
20260507060057 58 208 0.9 3.5 0.00 0.38 0.00 93 1014.0
20260507054558 58 221 1.7 2.6 0.00 0.38 0.00 94 1013.9
20260507053057 59 0 0.9 2.6 0.00 0.38 0.00 94 1013.7
20260507051601 58 198 1.7 2.6 0.00 0.38 0.00 94 1013.7
20260507044559 57 0 0.0 2.6 0.00 0.38 0.00 94 1013.4
20260507043057 57 0 0.0 0.0 0.00 0.38 0.00 94 1013.2
20260507041558 57 0 0.0 0.0 0.00 0.38 0.00 93 1013.0
20260507040110 57 0 0.0 0.0 0.00 0.38 0.00 93 1013.0
20260507034559 57 0 0.0 0.0 0.00 0.38 0.00 94 1012.9
20260507033102 57 0 0.0 0.0 0.00 0.38 0.00 94 1012.7
20260507031618 57 0 0.0 0.0 0.00 0.38 0.00 94 1012.7
20260507030053 57 0 0.0 0.0 0.00 0.38 0.00 93 1012.5
20260507024556 57 0 0.0 0.0 0.00 0.38 0.00 93 1012.7
20260507023053 57 0 0.0 0.0 0.00 0.38 0.00 93 1012.6
20260507021554 57 0 0.0 0.0 0.00 0.38 0.00 93 1012.6
20260507020059 58 0 0.0 0.0 0.00 0.38 0.00 93 1012.4
20260507014603 58 0 0.0 0.0 0.00 0.38 0.00 93 1012.4
20260507013114 58 0 0.0 0.0 0.00 0.38 0.00 93 1012.3
20260507011553 59 0 0.0 0.0 0.00 0.38 0.00 93 1012.4
20260507010104 59 0 0.0 0.0 0.00 0.38 0.00 93 1012.3
20260507004554 58 0 0.0 0.0 0.00 0.38 0.00 93 1012.2
20260507003056 58 0 0.0 0.0 0.00 0.38 0.00 93 1012.2
20260507001556 59 0 0.0 0.0 0.00 0.38 0.00 93 1012.1
20260507000054 59 0 0.0 0.0 0.00 0.38 0.00 92 1012.2
20260506234554 59 0 0.0 0.0 0.00 0.38 0.00 92 1012.3
20260506233106 59 0 0.0 0.9 0.00 0.38 0.00 92 1012.4
20260506231600 59 0 0.0 0.9 0.00 0.38 0.00 92 1012.2
20260506230105 59 325 0.0 0.9 0.00 0.38 0.00 92 1012.0
20260506224552 59 0 0.0 0.9 0.00 0.38 0.00 92 1012.1
20260506223056 59 0 0.0 0.9 0.00 0.38 0.00 92 1012.1
20260506221558 59 0 0.0 0.9 0.00 0.38 0.00 92 1012.2
20260506220059 59 0 1.7 5.2 0.00 0.38 0.00 91 1012.3
20260506214601 60 332 0.0 2.6 0.01 0.38 0.38 91 1012.3
20260506213055 60 0 0.0 0.0 0.05 0.38 0.38 91 1012.3
20260506211607 60 335 0.0 3.5 0.07 0.38 0.38 91 1012.3
20260506210058 60 335 1.7 6.1 0.07 0.38 0.38 90 1012.7
20260506204556 60 322 2.6 4.3 0.09 0.37 0.37 89 1013.0
20260506203057 60 309 2.6 4.3 0.11 0.33 0.33 91 1013.0
20260506201553 61 316 0.9 2.6 0.15 0.31 0.31 91 1012.7
20260506200056 61 314 0.0 1.7 0.21 0.30 0.30 91 1012.7
20260506194601 61 328 0.0 11.3 0.18 0.27 0.27 90 1012.9
20260506193055 61 231 7.0 12.2 0.11 0.21 0.21 88 1013.0
20260506191555 63 293 1.7 3.5 0.06 0.15 0.15 83 1012.3
20260506190056 63 252 1.7 5.2 0.00 0.09 0.09 84 1011.9
20260506184622 62 0 3.5 7.0 0.00 0.09 0.09 86 1011.0
20260506183056 62 323 1.7 9.6 0.00 0.09 0.09 87 1010.9
20260506181553 62 321 4.3 7.0 0.00 0.09 0.09 88 1010.6
20260506180055 61 305 3.5 7.8 0.05 0.09 0.09 88 1010.6
20260506174552 61 314 4.3 7.0 0.08 0.09 0.09 89 1010.2
20260506173108 61 351 1.7 3.5 0.09 0.09 0.09 87 1010.3
20260506171558 62 354 0.0 9.6 0.08 0.08 0.08 84 1011.0
20260506164611 67 301 9.6 18.2 0.00 0.00 0.00 73 1010.8
20260506163105 71 291 7.0 12.2 0.00 0.00 0.00 62 1010.2
20260506161557 75 310 0.0 1.7 0.00 0.00 0.00 54 1009.7
20260506160110 77 334 0.9 1.7 0.00 0.00 0.00 52 1009.7
20260506154558 77 0 0.0 2.6 0.00 0.00 0.00 49 1009.7
20260506153055 77 321 0.0 5.2 0.00 0.00 0.00 48 1009.9
20260506151555 78 222 2.6 6.1 0.00 0.00 0.00 46 1010.0
20260506150057 79 262 0.9 4.3 0.00 0.00 0.00 47 1010.1
20260506144616 79 138 4.3 7.8 0.00 0.00 0.00 47 1010.1
20260506143052 79 253 1.7 6.1 0.00 0.00 0.00 45 1010.2
20260506141610 79 170 5.2 13.0 0.00 0.00 0.00 46 1010.4
20260506140054 79 199 3.5 7.0 0.00 0.00 0.00 45 1010.4
20260506134601 79 253 4.3 7.8 0.00 0.00 0.00 46 1010.5
20260506133104 79 192 1.7 6.1 0.00 0.00 0.00 46 1010.8
20260506131557 78 191 4.3 9.6 0.00 0.00 0.00 47 1010.9
20260506130058 78 221 1.7 10.4 0.00 0.00 0.00 47 1011.1
20260506124554 79 203 3.5 8.7 0.00 0.00 0.00 45 1011.3
20260506123059 79 255 5.2 10.4 0.00 0.00 0.00 46 1011.3
20260506121614 79 252 2.6 8.7 0.00 0.00 0.00 47 1011.6
20260506120125 78 204 5.2 11.3 0.00 0.00 0.00 47 1011.8
20260506114559 77 264 3.5 8.7 0.00 0.00 0.00 49 1011.8
20260506113103 76 283 2.6 10.4 0.00 0.00 0.00 50 1012.0
20260506111555 77 190 5.2 10.4 0.00 0.00 0.00 49 1012.2
20260506110056 77 217 3.5 8.7 0.00 0.00 0.00 50 1012.3
20260506104555 76 193 7.0 11.3 0.00 0.00 0.00 49 1012.4
20260506103055 75 293 5.2 13.9 0.00 0.00 0.00 51 1012.5
20260506101556 75 191 5.2 13.0 0.00 0.00 0.00 52 1012.5
20260506100056 74 278 3.5 13.0 0.00 0.00 0.00 53 1012.7
20260506094554 74 221 5.2 12.2 0.00 0.00 0.00 52 1012.8
20260506093057 74 236 3.5 14.8 0.00 0.00 0.00 52 1012.8
20260506091556 73 250 4.3 13.9 0.00 0.00 0.00 53 1012.9
20260506090052 72 247 3.5 11.3 0.00 0.00 0.00 54 1012.9
20260506084555 72 282 4.3 10.4 0.00 0.00 0.00 54 1012.9
20260506083053 72 240 4.3 9.6 0.00 0.00 0.00 54 1013.0
20260506081554 71 221 5.2 11.3 0.00 0.00 0.00 54 1013.0
20260506073059 69 203 4.3 8.7 0.00 0.00 0.00 58 1013.0
20260506071556 68 214 2.6 7.8 0.00 0.00 0.00 61 1013.0